EW7448 Weather Reports


Display with metric or nautical units.
time (UTC)temp
F
wind
direction
speed
MPH
gust
MPH
rain 1hr
in
rain 24hr
in
rain mn
in
humidity
%
barometer
mb
20260504050009 74 43 2.0 8.0 0.00 0.23 0.00 84 1013.9
20260504044514 73 57 2.0 7.0 0.00 0.23 0.00 84 1013.9
20260504043007 73 357 1.0 5.0 0.00 0.23 0.00 84 1013.9
20260504041504 73 39 1.0 6.0 0.00 0.23 0.00 85 1014.1
20260504040003 73 50 3.0 6.0 0.00 0.23 0.23 85 1014.1
20260504034503 73 52 1.0 7.0 0.00 0.23 0.23 85 1014.4
20260504033002 73 86 2.0 11.0 0.00 0.23 0.23 86 1014.5
20260504031502 73 63 0.0 6.0 0.00 0.23 0.23 86 1014.6
20260504030001 73 34 2.0 8.0 0.00 0.23 0.23 86 1014.6
20260504024501 73 40 2.0 10.0 0.00 0.23 0.23 86 1014.4
20260504023102 73 65 2.0 10.0 0.00 0.23 0.23 83 1014.4
20260504021559 73 41 2.0 7.0 0.00 0.23 0.23 83 1014.4
20260504020059 72 49 1.0 8.0 0.00 0.23 0.23 85 1014.3
20260504014602 72 54 1.0 6.0 0.00 0.23 0.23 87 1014.1
20260504013111 71 47 1.0 8.0 0.00 0.23 0.23 88 1014.1
20260504011558 71 65 0.0 4.0 0.00 0.23 0.23 89 1014.1
20260504010113 72 15 1.0 7.0 0.00 0.23 0.23 88 1014.0
20260504004556 73 48 1.0 8.0 0.00 0.23 0.23 84 1013.9
20260504003055 73 42 2.0 7.0 0.00 0.23 0.23 83 1013.9
20260504001601 73 50 2.0 8.0 0.00 0.23 0.23 83 1013.6
20260504000057 73 39 0.0 5.0 0.00 0.23 0.23 82 1013.5
20260503234553 73 18 0.0 6.0 0.00 0.23 0.23 82 1013.5
20260503233101 73 68 0.0 4.0 0.00 0.23 0.23 83 1013.4
20260503231553 73 71 2.0 6.0 0.00 0.23 0.23 83 1013.2
20260503230054 73 53 2.0 6.0 0.00 0.23 0.23 84 1013.2
20260503224551 73 58 1.0 6.0 0.00 0.23 0.23 82 1013.1
20260503223051 73 57 1.0 6.0 0.00 0.23 0.23 82 1013.2
20260503221557 73 57 2.0 7.0 0.00 0.23 0.23 81 1013.3
20260503220101 74 60 0.0 3.0 0.00 0.23 0.23 81 1013.4
20260503214551 74 34 1.0 7.0 0.00 0.23 0.23 80 1013.3
20260503213050 74 1 0.0 8.0 0.00 0.23 0.23 82 1013.3
20260503211548 73 53 0.0 8.0 0.00 0.23 0.23 82 1013.4
20260503210054 73 55 0.0 6.0 0.00 0.23 0.23 82 1013.5
20260503204601 73 43 1.0 6.0 0.00 0.23 0.23 81 1013.7
20260503203051 73 18 1.0 5.0 0.00 0.23 0.23 82 1013.9
20260503201546 73 55 1.0 6.0 0.00 0.23 0.23 82 1013.9
20260503200047 73 53 1.0 8.0 0.00 0.23 0.23 82 1013.9
20260503194556 74 56 3.0 9.0 0.00 0.23 0.23 82 1013.9
20260503193043 74 23 2.0 9.0 0.00 0.23 0.23 82 1013.9
20260503191543 73 2 4.0 10.0 0.00 0.23 0.23 83 1014.1
20260503190046 73 2 2.0 11.0 0.00 0.23 0.23 85 1014.4
20260503184536 72 50 2.0 9.0 0.00 0.23 0.23 86 1014.7
20260503183036 72 349 4.0 9.0 0.00 0.23 0.23 86 1015.0
20260503181535 72 347 2.0 8.0 0.00 0.23 0.23 86 1015.2
20260503180034 72 51 4.0 10.0 0.00 0.23 0.23 86 1015.3
20260503174533 71 46 3.0 9.0 0.00 0.23 0.23 88 1015.3
20260503173051 72 47 3.0 8.0 0.00 0.23 0.23 88 1015.2
20260503171533 72 76 3.0 10.0 0.00 0.23 0.23 87 1015.2
20260503100104 68 349 0.0 4.0 0.14 0.19 0.19 96 1012.3
20260503081551 70 359 0.0 5.0 0.01 0.01 0.01 94 1012.1
20260503071541 70 339 0.0 1.0 0.00 0.00 0.00 93 1011.4
20260503054535 71 269 0.0 1.0 0.00 0.00 0.00 93 1011.8
20260503053028 71 282 0.0 2.0 0.00 0.00 0.00 93 1012.0
20260503051525 72 297 0.0 1.0 0.00 0.00 0.00 93 1012.0